TimeEDT,TemperatureF,Dew PointF,Humidity,Sea Level PressureIn,VisibilityMPH,Wind Direction,Wind SpeedMPH,Gust SpeedMPH,PrecipitationIn,Events,Conditions,WindDirDegrees,DateUTC
12:54 AM,69.1,57.0,65,30.12,10.0,North,6.9,-,N/A,,Partly Cloudy,350,2013-08-24 04:54:00
1:54 AM,66.9,57.9,73,30.13,10.0,North,6.9,-,N/A,,Partly Cloudy,360,2013-08-24 05:54:00
2:54 AM,68.0,55.9,65,30.14,10.0,North,6.9,-,N/A,,Scattered Clouds,10,2013-08-24 06:54:00
3:54 AM,66.9,55.0,66,30.16,10.0,NNE,5.8,-,N/A,,Partly Cloudy,20,2013-08-24 07:54:00
4:54 AM,66.0,54.0,65,30.18,10.0,NE,6.9,-,N/A,,Partly Cloudy,40,2013-08-24 08:54:00
5:54 AM,66.0,52.0,60,30.19,10.0,NE,12.7,-,N/A,,Partly Cloudy,40,2013-08-24 09:54:00
6:54 AM,66.0,51.1,59,30.22,10.0,NNE,13.8,-,N/A,,Scattered Clouds,30,2013-08-24 10:54:00
7:54 AM,66.9,52.0,59,30.25,10.0,NE,8.1,-,N/A,,Partly Cloudy,40,2013-08-24 11:54:00
8:54 AM,69.1,52.0,54,30.27,10.0,NE,10.4,-,N/A,,Scattered Clouds,50,2013-08-24 12:54:00
9:54 AM,72.0,53.1,51,30.28,10.0,NNE,10.4,-,N/A,,Scattered Clouds,30,2013-08-24 13:54:00
10:54 AM,75.0,54.0,48,30.29,10.0,ENE,8.1,-,N/A,,Scattered Clouds,70,2013-08-24 14:54:00
11:54 AM,77.0,53.1,43,30.29,10.0,ENE,11.5,-,N/A,,Scattered Clouds,70,2013-08-24 15:54:00
12:54 PM,78.1,53.1,42,30.28,10.0,East,9.2,-,N/A,,Scattered Clouds,90,2013-08-24 16:54:00
1:54 PM,80.1,53.1,39,30.28,10.0,ENE,8.1,16.1,N/A,,Scattered Clouds,60,2013-08-24 17:54:00
2:54 PM,81.0,53.1,38,30.27,10.0,NNE,6.9,-,N/A,,Scattered Clouds,20,2013-08-24 18:54:00
3:54 PM,82.0,51.1,34,30.27,10.0,NNE,5.8,-,N/A,,Scattered Clouds,30,2013-08-24 19:54:00
4:54 PM,81.0,51.1,35,30.28,10.0,ENE,9.2,-,N/A,,Scattered Clouds,70,2013-08-24 20:54:00
5:54 PM,80.1,48.9,34,30.28,10.0,East,6.9,-,N/A,,Scattered Clouds,90,2013-08-24 21:54:00
6:54 PM,77.0,50.0,39,30.28,10.0,East,6.9,-,N/A,,Scattered Clouds,90,2013-08-24 22:54:00
7:54 PM,73.0,55.9,55,30.30,10.0,ESE,10.4,-,N/A,,Partly Cloudy,120,2013-08-24 23:54:00
8:54 PM,71.1,55.9,59,30.33,10.0,SSE,4.6,-,N/A,,Clear,150,2013-08-25 00:54:00
9:54 PM,70.0,55.9,61,30.35,10.0,Calm,Calm,-,N/A,,Clear,0,2013-08-25 01:54:00
10:54 PM,70.0,55.9,61,30.35,10.0,Calm,Calm,-,N/A,,Clear,0,2013-08-25 02:54:00
11:54 PM,66.9,57.9,73,30.36,10.0,Calm,Calm,-,N/A,,Clear,0,2013-08-25 03:54:00